Regional Weather Roundup
Issued by NWS

Home | Current Version | Previous Version | Text Only | Print | Product List | Glossary On
Versions: 1 2 3 4 5 6 7 8 9 10 11 12 13 14 15 16 17 18 19 20 21 22 23 24 25 26 27 28 29 30 31 32 33 34 35 36 37 38 39 40 41 42 43 44 45 46 47 48 49 50
000
ASCA44 KEWX 261720
RWRMX

LATIN AMERICA AND CARIBBEAN REGIONAL WEATHER ROUNDUP
NATIONAL WEATHER SERVICE AUSTIN/SAN ANTONIO TX
1200 PM CDT SUN MAR 26 2017

NOTE: "FAIR" INDICATED FEW OR NO CLOUDS BELOW 12,000 FEET WITH NO
SIGNIFICANT WEATHER AND/OR OBSTRUCTIONS TO VISIBILITY.

BAJA CALIFORNIA

CITY           SKY/WX    TMP DP  RH WIND       PRES   REMARKS
LORETO         SUNNY     77  64  65 CALM      29.94F
LA PAZ         SUNNY     79  34  19 S3        30.00S
MEXICALI       SUNNY     72  41  33 W5        29.97R
S.J. DEL CABO  SUNNY     82  23  11 SE6       29.99S
TIJUANA        CLOUDY    59  52  77 CALM      30.08S

NORTHWESTERN MEXICO

CITY           SKY/WX    TMP DP  RH WIND       PRES   REMARKS
CULIACAN       SUNNY     73  59  60 S5        29.97S
DURANGO        SUNNY     66  28  24 S9        30.21F
GUAYMAS        SUNNY     75  57  53 CALM      29.91S
HERMOSILLO     SUNNY     77  43  29 CALM      29.98R
CD. JUAREZ     SUNNY     66  36  32 W9G21     29.93S
LOS MOCHIS     SUNNY     72  52  49 E6        29.99S
OBREGON        SUNNY     75  41  29 S5        29.95R

NORTHEASTERN MEXICO

CITY           SKY/WX    TMP DP  RH WIND       PRES   REMARKS
CHIHUAHUA      MOSUNNY   73  19  13 S8        30.03F
MATAMOROS      MOSUNNY   84  70  61 S16G28    29.86F
MONCLOVA         N/A    N/A N/A N/A MISG        N/A
MONTERREY      CLOUDY    81  57  44 NW5       29.83F
NUEVO LAREDO   SUNNY     81  61  50 SE14      29.82F
PIEDRAS NEGRAS SUNNY     79  59  50 SE9       29.85S
REYNOSA        MOSUNNY   81  63  54 SE12G23   29.84S
SALTILLO       PTSUNNY   86  45  23 SW10      30.10S
TORREON        MOSUNNY   82  36  18 CALM      30.02S
CD. VICTORIA   SUNNY     79  63  57 S18G30    29.84F

WESTERN MEXICO

CITY           SKY/WX    TMP DP  RH WIND       PRES   REMARKS
AGUASCALIENTES MOSUNNY   75  46  35 S6        30.25F
COLIMA         MOSUNNY   77  64  65 S7        30.07
DEL BAJIO      SUNNY     73  45  35 W8        30.30S
GUADALAJARA      N/A    N/A N/A N/A MISG        N/A
MANZANILLO     SUNNY     82  73  74 SW9       29.95S
MAZATLAN       SUNNY     79  57  47 S5        30.02S
P. VALLARTA    MOSUNNY   79  70  73 SW7       29.97S
URUAPAN        SUNNY     73  61  64 SW9       30.19F
ZACATECAS      MOSUNNY   72  36  26 SW12G23   30.26S

CENTRAL MEXICO

CITY           SKY/WX    TMP DP  RH WIND       PRES   REMARKS
CUERNAVACA     MOSUNNY   81  48  32 CALM      30.13F
MEXICO CITY    SUNNY     72  41  33 S5        30.32F
MORELIA        SUNNY     79  52  38 SW5       30.22F
POZA RICA      PTSUNNY   81  70  69 SE5       29.97S
PUEBLA         SUNNY     68  43  40 S7        30.32F
QUERETARO      SUNNY     73  46  38 NW5       30.28F
S. LUIS POTOSI SUNNY     73  36  25 SW5       30.20F
TAMPICO        PTSUNNY   81  70  69 S12       29.90F
TOLUCA         MOSUNNY   64  43  45 E3        30.40F

SOUTHERN MEXICO

CITY           SKY/WX    TMP DP  RH WIND       PRES   REMARKS
ACAPULCO       MOSUNNY   84  73  70 SW9       29.92F HX  91
B. DE HUATULCO MOSUNNY   86  72  62 S12       29.99S HX  92
OAXACA         MOSUNNY   75  50  41 S6        30.20F
P. ESCONDIDO   SUNNY     82  72  69 SW15      30.03F
VERACRUZ       MOSUNNY   82  73  74 SE12      29.93F
ZIHUATANEJO    SUNNY     86  73  66 SW13      29.93S HX  93

YUCATAN PENINSULA

CITY           SKY/WX    TMP DP  RH WIND       PRES   REMARKS
CAMPECHE       SUNNY     88  61  40 E17       29.93F
CANCUN         MOSUNNY   84  66  54 E9        30.04F
CHETUMAL       MOSUNNY   84  70  61 SE10      30.00F
CD. DEL CARMEN MOSUNNY   84  64  51 SE10      29.95S
COZUMEL        PTSUNNY   84  66  54 SE14      30.01F
MERIDA         MOSUNNY   90  61  37 E18       29.98F
MINATITLAN     SUNNY     81  68  65 CALM      29.94F
TAPACHULA      MOSUNNY   90  72  55 W6        29.91F HX  96
TUX. GUTIERREZ SUNNY     84  59  42 SE7       29.97F
VILLAHERMOSA   MOSUNNY   82  68  61 CALM      29.96F

CENTRAL AMERICA

CITY           SKY/WX    TMP DP  RH WIND       PRES   REMARKS
BELIZE CITY    MOSUNNY   84  70  61 S8        29.99F
MANAGUA        MOSUNNY   90  64  43 E9        29.89F HX  91

CARIBBEAN

CITY           SKY/WX    TMP DP  RH WIND       PRES   REMARKS
ARUBA          MOSUNNY   90  75  62 E12       29.86F HX 100
CURACAO        MOSUNNY   86  73  66 E12       29.89F HX  93
KINGSTON       MOSUNNY   82  70  65 S13       29.94S
NASSAU         MOSUNNY   82  61  47 NE15      30.11S
SAN JUAN       MOSUNNY   88  70  55 SE13G22   29.89F HX  92
SANTO DOMINGO  MOSUNNY   86  68  54 S9        29.89F
ST. CROIX      MOSUNNY   84  73  70 SE10      29.94F HX  91
ST. KITTS      MOSUNNY   84  70  61 S10       29.92F
ST. MAARTEN    MOSUNNY   82  73  74 SE10      29.94S
ST. THOMAS     PTSUNNY   81  75  83 SE15      29.92F

$$




USA.gov is the U.S. government's official web portal to all federal, state and local government web resources and services.